Wind_Speed
39 37 34 33 34 33 32 33 32 28 23 22 23 23 21 18 16 13 11 8 7 6 6 5 3 2 4 5 6 6 6 8 11 12 12 13 14 17 18 19 19 18 17 15 15 14 14 14 14 14 13 12 10 9 9 9 8 8 7 6 5 4 3 3 4 4 5 7 9 10 11 13 13 14 15 16 16 17 17 18 18 19 19 20 20 20
41 38 38 39 38 36 34 34 33 30 27 25 25 25 23 21 19 16 14 11 9 8 7 7 6 3 3 5 6 6 6 8 10 12 13 14 17 19 19 19 18 18 17 15 15 15 14 14 14 13 12 10 9 9 9 9 9 8 8 7 5 4 3 2 2 3 5 7 8 9 11 12 13 14 15 15 16 17 17 17 18 19 20 20 20 20
44 43 45 45 43 41 36 34 33 31 29 27 27 26 25 24 22 20 18 14 11 10 9 8 8 6 4 5 6 7 7 9 11 13 15 16 18 19 18 17 16 15 14 13 14 15 15 15 15 13 11 10 10 10 10 9 9 8 7 6 4 3 2 1 1 3 5 7 8 10 11 12 13 13 14 15 15 16 17 17 18 19 20 20 20 20
49 49 51 49 47 44 40 36 34 32 30 28 28 28 28 27 24 23 22 18 13 12 11 10 10 9 7 7 8 9 9 10 12 14 16 17 18 18 17 15 14 12 11 11 12 13 14 15 14 12 10 11 11 10 10 9 9 8 7 6 4 3 3 2 3 4 6 8 9 11 11 12 13 13 14 15 15 16 16 17 18 19 20 20 20 21
53 55 54 51 49 47 44 40 36 33 32 30 29 31 32 29 27 26 24 21 17 15 14 13 12 12 11 9 9 11 11 11 12 14 16 17 18 17 16 15 13 12 11 10 11 11 13 14 13 11 10 11 10 10 10 10 9 9 7 6 5 4 4 4 4 5 7 9 10 11 12 12 13 14 14 15 15 15 16 17 18 19 20 20 21 22
57 58 57 54 52 50 49 45 40 37 35 33 31 33 35 33 30 28 26 24 21 18 18 17 14 13 13 11 10 11 13 12 12 15 16 17 18 18 16 15 14 12 11 10 10 11 13 14 13 12 12 12 11 10 10 10 9 9 8 7 6 6 5 5 6 7 8 9 11 12 13 13 14 14 15 15 15 16 16 17 18 19 20 21 22 22
60 61 59 57 56 54 52 49 45 41 38 35 34 36 38 37 34 30 28 27 23 23 22 19 17 15 13 13 12 11 13 13 13 15 16 17 18 18 17 16 14 13 13 12 12 12 13 14 14 14 14 14 13 11 10 10 10 9 9 8 8 8 7 7 7 8 9 10 12 13 13 14 14 14 15 15 16 17 17 18 18 19 20 21 22 23
63 64 61 60 59 57 55 52 50 47 42 39 40 40 39 41 38 33 32 29 25 26 25 21 19 17 15 15 14 12 12 14 15 15 17 17 17 17 17 16 15 14 15 15 14 14 13 14 15 15 15 16 15 13 12 12 11 11 10 10 10 9 9 9 9 9 10 11 12 13 14 15 15 15 15 16 17 17 18 19 19 19 20 21 22 23
64 65 63 62 61 59 57 56 55 53 47 45 47 44 41 43 42 38 36 32 28 29 26 23 22 19 17 17 15 13 13 15 17 17 18 17 16 16 17 17 17 16 17 17 16 15 14 15 15 15 15 15 14 13 14 13 13 12 12 12 11 11 11 11 11 11 12 13 14 15 15 15 15 15 15 16 17 18 19 20 20 20 21 21 22 24
61 65 66 65 62 61 61 60 60 57 52 51 51 48 45 45 45 43 39 34 32 30 26 24 24 22 21 19 16 15 15 17 19 19 18 18 18 18 18 17 18 18 19 19 18 17 16 16 16 16 15 14 13 13 13 13 13 13 13 12 13 13 13 13 13 13 14 15 16 16 17 17 16 16 16 17 18 18 19 20 21 21 22 22 23 25
55 61 65 65 64 64 64 63 62 60 57 57 55 51 48 48 47 46 43 39 34 28 25 24 25 25 23 21 19 18 19 19 19 19 19 20 20 20 19 19 18 19 19 19 19 19 18 18 18 17 15 14 13 14 13 12 13 13 13 13 14 14 15 15 15 15 16 17 18 18 18 18 17 17 17 17 18 19 20 21 22 23 23 24 25 26
48 54 59 64 66 66 66 65 65 63 62 61 58 55 53 51 49 48 47 43 35 28 26 27 27 27 25 24 24 23 23 22 20 20 21 21 21 21 21 20 19 19 20 20 21 21 20 20 19 17 15 15 15 15 15 14 14 13 12 13 14 15 16 16 17 17 18 19 20 20 19 19 19 18 18 18 19 20 22 23 24 24 25 25 26 28
44 46 52 59 64 67 67 67 67 66 64 64 62 60 58 55 52 49 48 45 38 32 30 31 31 28 26 28 28 26 26 25 23 22 21 21 22 22 22 22 21 21 22 22 22 22 22 21 20 18 17 17 17 17 16 16 15 14 13 13 14 15 17 18 18 19 19 20 21 21 21 21 20 20 20 20 20 22 23 24 25 26 26 27 28 29
44 43 46 51 58 64 67 68 68 68 67 66 66 65 62 58 54 50 49 48 44 38 35 36 35 30 27 29 31 30 30 29 27 25 23 24 24 24 24 24 23 23 25 25 24 24 23 22 21 19 19 19 20 19 18 17 16 15 14 13 14 16 18 19 20 20 21 22 23 23 22 22 22 22 22 22 22 23 24 26 27 27 28 29 30 31
43 42 44 47 52 58 64 68 70 70 71 70 68 68 66 62 57 54 52 51 49 45 43 42 38 32 31 32 35 36 35 33 31 29 27 26 25 25 25 25 26 27 27 27 26 25 24 23 22 21 22 22 21 21 21 19 18 17 16 15 16 17 19 20 21 22 23 24 24 24 23 24 23 23 24 24 24 25 26 27 28 28 29 31 32 33
43 41 44 47 48 51 56 63 69 71 71 72 71 70 67 63 60 58 57 54 53 53 50 45 40 37 36 36 40 39 36 34 34 32 31 29 27 26 26 27 28 28 29 29 27 26 26 25 24 25 25 24 23 23 23 21 20 19 19 19 18 18 20 21 23 24 25 25 26 25 25 25 25 25 25 26 26 27 28 29 29 30 31 32 34 35
45 43 44 46 46 47 49 56 64 68 69 72 73 69 66 65 65 65 62 59 59 58 51 46 44 42 39 40 43 39 34 33 35 35 35 32 30 29 29 30 30 29 30 31 30 29 27 26 27 27 26 25 25 25 25 23 22 21 22 22 21 20 21 23 24 25 27 27 27 26 26 26 27 27 27 27 28 28 29 30 31 32 32 34 35 36
48 46 46 46 45 46 47 50 56 62 66 70 71 69 69 71 72 70 67 64 62 59 52 49 49 46 42 43 44 40 35 36 37 37 37 35 33 33 33 34 33 32 32 32 32 30 29 28 29 28 28 27 26 26 27 26 25 24 24 24 23 22 22 24 26 27 28 29 28 28 28 28 28 29 29 29 29 30 31 32 32 33 34 35 36 37
51 49 48 47 45 45 48 47 48 53 61 66 70 72 75 75 74 73 71 66 62 59 55 54 53 50 46 45 45 42 39 39 41 39 38 37 35 36 38 38 36 34 34 34 34 32 30 29 30 30 29 28 28 28 29 29 28 28 28 27 26 24 24 26 28 29 30 30 30 30 30 30 30 31 31 31 31 32 33 33 34 35 36 37 38 38
56 52 49 50 48 46 47 46 44 47 54 62 68 73 75 75 74 75 73 69 66 64 62 59 56 52 49 48 47 47 44 43 45 43 40 40 39 39 41 41 38 36 37 37 36 34 32 31 31 31 31 31 30 31 31 31 32 32 31 30 29 27 26 27 29 30 31 32 32 32 32 32 32 33 33 33 33 34 35 35 36 37 38 39 40 40
60 55 52 52 51 48 45 43 44 46 50 55 62 68 71 73 74 76 77 72 70 69 66 61 56 52 52 52 51 51 49 47 48 47 43 42 43 43 44 43 40 38 39 40 38 38 36 34 33 33 33 33 33 33 34 34 33 33 33 32 31 29 28 29 30 32 33 34 34 34 34 34 34 35 35 35 36 36 37 37 37 38 40 41 42 42
63 60 56 55 54 49 46 45 44 46 48 51 56 62 66 70 74 78 79 75 72 71 69 65 60 55 55 57 55 55 55 52 50 50 48 46 46 46 45 45 43 42 43 43 42 41 39 36 35 36 36 37 36 35 36 35 35 34 34 33 33 32 31 31 32 33 34 35 36 36 36 37 37 37 37 38 38 38 39 39 39 40 41 43 44 44
67 66 61 57 55 52 49 48 46 45 47 49 51 56 61 65 70 74 77 75 73 74 73 70 65 60 59 60 58 59 60 57 53 51 51 50 50 49 47 46 45 45 46 47 45 42 41 39 38 37 38 39 38 38 38 37 37 36 35 34 35 35 34 33 34 35 36 38 38 39 39 39 39 39 40 40 40 40 41 41 41 42 43 44 45 46
69 70 65 59 58 56 53 50 48 46 46 47 47 50 56 60 63 68 74 76 76 77 77 75 68 63 62 63 62 63 64 61 57 54 54 55 54 53 51 49 48 47 48 50 48 44 43 43 41 40 40 41 40 40 40 39 38 38 37 37 37 38 37 36 37 38 39 40 41 41 42 42 42 42 42 42 42 42 43 43 43 44 45 46 47 48
70 70 69 64 61 59 55 50 47 47 45 45 45 47 51 55 58 64 70 76 79 78 79 79 71 65 66 67 67 68 67 65 62 59 58 58 58 58 55 51 50 50 50 52 50 47 45 45 44 43 43 43 43 43 43 42 41 40 40 39 39 40 40 40 40 41 41 42 43 44 44 45 45 45 45 44 44 44 45 45 45 46 47 48 49 49
72 70 71 69 63 60 57 53 50 49 48 46 45 46 49 51 55 60 65 72 77 76 78 80 74 69 70 71 71 72 71 67 65 63 62 61 61 61 59 56 53 52 53 53 53 51 48 47 47 46 46 46 46 45 45 45 44 43 43 42 42 42 43 43 43 43 44 45 46 46 47 47 47 47 47 47 46 46 47 47 47 47 48 49 51 52
75 72 71 70 67 62 60 59 59 56 51 48 46 47 49 50 52 56 61 66 69 72 76 79 76 74 74 74 75 76 75 71 68 67 66 66 65 63 62 60 57 56 56 56 55 54 52 50 50 49 49 48 47 47 47 46 46 46 46 45 45 44 45 45 46 46 46 47 48 49 49 49 50 50 50 49 48 48 49 50 50 49 49 50 52 53
78 76 71 69 69 67 63 62 64 63 54 48 47 47 49 51 51 52 55 57 61 67 72 74 76 76 75 76 78 78 78 76 73 71 69 69 69 67 64 63 61 60 60 58 57 56 55 53 52 52 51 50 49 50 50 49 49 49 48 48 48 47 47 47 48 49 49 49 50 51 51 52 53 53 52 51 50 50 51 52 52 52 51 51 52 54
82 78 73 71 71 70 67 65 66 66 58 49 47 47 48 51 51 50 50 51 56 63 65 68 73 74 74 77 80 80 79 78 77 76 74 73 73 70 68 67 66 64 62 59 58 58 57 56 55 53 52 51 51 52 52 52 52 51 51 50 49 49 49 49 50 51 52 52 52 53 54 55 55 55 53 52 52 53 54 54 54 53 53 53 53 54
85 80 77 74 72 72 71 68 68 68 64 55 50 50 49 50 50 50 49 49 53 57 57 61 69 71 71 76 81 83 82 81 81 81 79 77 76 74 71 70 69 68 65 61 60 60 60 60 58 56 54 53 54 53 54 54 54 53 52 51 51 51 52 52 52 53 55 55 54 55 56 57 57 56 55 54 54 54 55 55 53 53 54 54 55 56
87 83 80 77 75 74 72 71 71 70 67 63 58 52 49 49 49 50 51 51 51 51 52 55 63 68 69 72 78 84 84 83 82 83 83 81 79 77 74 71 70 71 69 66 64 63 63 62 61 58 56 56 56 56 56 56 56 55 54 53 53 55 55 55 55 56 57 58 58 58 58 59 58 58 57 56 56 56 56 55 54 54 56 56 58 59
89 86 83 81 79 75 72 74 74 70 71 71 62 51 48 50 50 49 50 51 50 51 51 52 56 62 66 68 73 78 83 85 85 85 85 84 81 80 78 75 73 73 73 72 69 67 66 65 63 61 59 58 59 59 59 60 59 58 58 58 58 58 58 58 58 59 60 61 61 60 61 62 61 59 59 59 58 59 59 58 58 58 58 58 60 62
92 88 86 84 82 77 76 77 75 76 76 67 54 50 51 52 51 51 50 50 52 54 55 51 50 56 62 66 69 72 77 83 87 87 86 84 83 83 82 79 77 76 76 75 73 71 70 68 66 64 62 61 61 62 62 62 61 61 61 60 59 58 59 61 61 61 62 62 63 63 63 64 61 60 60 61 61 62 62 62 62 61 60 60 62 63
98 93 90 87 83 80 80 80 79 81 75 59 52 57 58 55 55 55 52 51 53 57 57 52 50 53 60 65 68 70 73 77 83 87 88 86 85 85 85 83 80 79 78 76 75 75 74 71 70 69 67 65 64 64 64 63 62 62 62 59 58 58 60 61 62 62 63 63 64 64 64 64 62 62 63 64 64 65 65 65 65 64 63 63 64 65
103 100 96 92 87 83 83 84 84 81 73 65 64 66 63 60 59 58 56 55 57 59 58 55 53 55 58 61 63 65 68 71 76 81 85 86 87 86 86 84 83 82 81 79 78 78 77 76 75 73 70 68 68 68 66 65 63 62 62 61 61 61 62 63 63 63 64 65 66 66 66 65 66 66 66 67 67 68 68 68 67 67 66 66 66 68
107 106 101 96 92 88 86 87 84 79 75 75 74 71 69 68 64 62 62 63 63 62 58 56 55 54 56 56 56 58 60 62 65 70 76 81 85 87 88 87 85 85 84 83 82 81 80 80 79 77 74 73 73 72 70 67 65 64 64 64 64 65 65 66 65 66 67 68 69 69 69 69 69 68 67 68 69 70 70 70 69 69 69 69 69 70
111 110 105 100 96 92 89 88 85 82 81 79 75 74 75 73 68 66 66 66 66 63 58 55 54 53 53 52 51 52 53 55 59 65 70 76 81 85 88 89 89 89 88 88 88 86 84 82 81 81 79 77 76 74 72 69 67 66 66 66 66 66 66 66 66 68 70 71 71 71 71 71 70 69 69 70 70 71 71 72 72 72 71 71 72 73
112 112 110 104 98 95 92 90 88 85 81 77 75 75 76 75 72 69 67 68 68 64 59 57 55 52 51 50 50 53 55 57 61 65 69 73 78 82 86 89 91 93 92 91 91 90 87 83 81 81 81 79 78 76 74 73 71 70 69 68 68 69 68 68 69 70 72 73 74 74 73 73 72 71 71 71 71 71 71 73 74 73 72 72 74 76
114 116 115 108 101 97 95 93 90 85 80 77 77 78 78 77 73 69 68 69 67 63 62 61 58 54 52 52 54 56 57 59 61 63 66 69 73 77 81 84 88 92 93 92 92 91 89 86 83 80 80 80 80 78 76 75 74 72 71 71 71 72 72 72 72 72 74 75 76 76 76 76 74 74 74 73 72 71 72 73 72 71 72 75 78 78
119 119 116 110 103 99 95 92 89 85 82 81 80 80 81 78 73 71 71 69 64 63 63 61 58 55 52 53 56 56 55 55 57 60 63 65 67 71 75 77 81 87 90 91 92 92 92 90 86 81 79 80 81 79 78 78 77 74 72 72 73 73 73 74 75 75 77 78 79 79 79 78 77 76 76 75 74 73 73 72 71 72 75 79 80 79
123 120 116 109 104 100 96 93 90 87 85 83 81 81 81 77 74 74 72 66 62 62 61 59 56 53 51 53 56 57 55 54 55 58 61 63 63 66 69 71 74 80 85 88 90 93 94 93 88 83 80 80 82 81 81 81 80 76 73 73 74 74 75 77 78 79 79 80 81 82 82 81 80 79 78 76 75 75 74 73 73 76 78 79 80 80
122 118 113 108 103 101 98 95 92 89 87 84 82 82 81 77 76 75 69 64 60 58 57 55 53 52 52 54 55 56 55 52 52 54 58 60 61 62 64 66 70 74 78 82 86 90 92 92 89 86 83 81 82 82 81 81 82 80 77 76 75 77 79 80 81 81 81 82 83 85 85 84 82 81 79 78 77 76 76 75 76 78 79 79 80 82
121 116 111 106 103 102 100 97 92 89 87 85 84 83 81 78 76 74 68 62 57 54 54 54 54 53 54 53 52 53 52 50 48 50 54 57 60 61 62 64 67 70 73 77 81 84 86 87 87 87 86 83 82 81 80 81 83 85 84 81 79 80 82 82 83 83 83 84 85 86 86 84 82 80 79 78 77 76 76 77 78 78 79 79 81 82
118 115 110 106 103 102 99 95 90 88 88 88 86 84 81 78 76 73 67 60 55 53 54 55 56 56 56 54 51 51 50 49 48 49 51 54 58 60 60 61 64 67 69 72 76 79 80 81 81 82 83 82 80 79 81 83 86 88 88 86 84 84 84 84 85 86 86 86 86 87 86 85 83 82 80 78 77 77 78 78 78 79 80 81 81 81
115 111 105 101 101 101 97 91 87 87 88 88 86 84 80 76 72 67 61 56 53 54 55 56 57 59 58 55 52 51 51 51 50 50 51 52 54 56 57 58 60 62 65 67 70 72 74 75 76 75 74 75 75 75 77 81 86 89 90 89 87 86 86 85 86 87 87 87 87 88 89 87 85 83 81 80 79 79 80 79 79 80 80 80 80 80
112 109 103 96 94 93 93 91 88 86 87 87 86 82 76 71 67 62 57 55 54 54 56 58 58 59 57 54 51 51 51 51 51 52 52 51 50 51 52 54 55 57 60 63 64 66 67 68 68 66 65 67 69 67 65 70 77 83 87 89 89 88 88 88 88 88 88 89 90 91 89 86 85 83 82 81 81 80 80 79 79 80 80 79 78 79
107 107 104 99 92 87 86 87 83 80 79 81 82 79 74 71 69 64 59 57 57 57 59 58 57 56 54 52 50 49 50 50 50 51 52 51 50 49 49 50 51 52 55 58 58 59 60 59 59 58 57 60 62 61 60 61 64 69 76 83 86 86 86 87 89 90 91 92 92 91 88 86 85 83 82 81 80 78 78 78 79 79 77 76 76 77
101 102 101 100 96 91 86 80 72 69 71 71 72 73 73 73 71 66 61 60 60 61 61 59 56 53 51 50 49 49 49 50 51 51 52 52 52 51 49 48 47 49 51 52 52 53 52 52 51 51 52 54 56 58 60 61 58 58 64 74 80 83 83 83 84 86 89 91 91 89 86 85 84 81 80 79 78 77 76 77 76 74 73 74 76 76
95 96 96 97 96 93 88 77 64 62 68 69 68 69 70 71 70 66 63 61 59 58 58 59 58 57 54 51 49 49 50 51 50 50 50 50 50 50 50 49 48 47 47 46 46 46 45 44 45 46 46 49 52 53 56 59 56 54 59 67 74 79 80 78 77 76 77 80 83 84 84 84 83 81 80 78 77 76 75 73 72 72 74 75 74 72
88 90 91 91 90 89 85 75 64 62 64 62 62 67 69 68 68 66 62 61 58 55 54 55 57 58 57 53 50 49 49 50 50 49 49 47 47 47 48 48 48 47 44 42 41 41 40 38 38 36 35 41 49 49 46 50 54 55 57 62 68 72 73 71 69 68 65 66 68 69 71 75 77 77 77 75 73 72 70 69 70 72 73 72 70 69
83 84 84 84 83 82 78 69 63 65 63 52 49 59 65 64 64 63 60 59 58 54 53 54 53 52 53 53 52 51 50 49 49 49 48 47 46 44 44 44 45 45 43 41 38 37 34 28 25 23 24 34 47 46 40 44 51 55 57 58 61 66 69 67 66 66 65 63 61 59 59 62 65 67 68 67 67 66 66 67 68 69 69 68 68 68
Wind_Direction
250 254 255 252 249 247 248 252 257 260 261 261 263 264 264 266 267 268 270 272 275 277 277 270 263 210 175 183 193 194 194 195 197 198 194 188 179 169 161 154 151 154 156 158 160 159 160 161 159 159 160 161 164 169 172 174 175 176 179 179 173 155 130 97 66 42 24 15 11 6 2 1 0 2 5 4 1 1 1 2 2 1 2 4 4 4
248 251 251 249 247 244 243 247 251 255 256 256 258 260 260 260 261 262 262 262 262 263 265 267 271 261 207 186 179 181 188 188 190 189 183 175 168 163 161 160 159 161 162 164 166 165 164 165 164 163 164 167 172 176 177 177 179 186 188 186 178 163 139 108 59 17 6 2 360 358 356 355 357 360 2 1 358 357 357 358 359 359 1 2 2 3
244 245 247 246 246 245 242 243 247 250 251 253 255 258 258 256 255 257 257 254 254 256 257 258 261 259 241 216 191 187 192 190 189 185 176 170 168 167 167 168 169 171 172 173 173 172 171 170 170 172 173 175 177 179 182 187 192 195 193 190 185 178 163 166 324 343 347 349 350 350 349 350 353 357 358 358 355 354 354 354 357 358 360 1 1 2
242 242 245 246 247 248 245 242 243 247 249 250 252 254 256 254 251 253 252 248 246 250 252 247 249 250 244 227 205 195 192 188 190 187 177 172 173 175 176 178 183 187 187 185 183 181 180 177 176 181 183 179 179 184 190 197 201 200 199 201 205 206 211 241 296 323 335 340 342 343 343 344 347 351 354 355 352 351 351 353 356 359 360 360 359 359
241 242 243 245 247 248 248 245 242 243 246 246 247 250 252 252 249 248 247 246 241 244 248 241 236 239 239 234 215 202 195 191 193 192 184 179 180 183 186 190 196 201 201 197 194 191 187 184 183 186 186 184 186 192 199 202 203 203 205 211 216 223 236 261 293 315 327 333 335 336 337 338 342 347 349 350 348 347 348 351 354 357 358 357 357 357
241 242 242 243 245 246 247 246 242 240 240 242 243 245 249 249 247 245 245 244 241 240 242 240 235 233 237 240 229 214 206 199 198 196 191 189 191 191 193 199 202 208 215 215 208 200 193 192 192 191 189 189 193 200 206 209 209 210 212 219 226 233 247 267 289 308 320 326 328 330 331 333 338 344 345 345 344 342 345 348 352 354 355 355 354 354
240 241 241 241 242 244 246 246 244 239 236 239 240 240 244 248 246 244 243 240 238 240 239 238 238 234 233 238 236 228 217 206 200 199 198 200 202 200 199 205 209 214 221 222 215 206 200 199 199 198 196 194 198 203 211 216 219 222 227 232 238 245 256 270 288 304 313 319 322 324 326 330 335 340 341 341 339 339 341 344 348 351 352 351 350 350
239 240 240 240 241 242 244 245 245 241 235 235 238 236 239 246 245 242 240 237 234 237 237 235 238 236 232 233 235 235 227 214 208 206 204 206 209 209 208 211 215 220 223 220 215 212 209 206 203 203 204 204 205 205 208 216 220 228 236 244 252 258 266 276 287 298 307 312 316 319 321 325 331 335 336 336 335 335 337 340 343 346 348 347 347 347
239 239 239 239 240 240 242 243 244 243 237 234 236 236 236 242 245 243 239 235 232 232 234 234 237 236 235 235 233 235 233 223 218 214 210 208 212 215 214 215 217 219 221 220 218 217 216 214 210 206 208 212 214 210 211 214 218 227 239 250 260 267 274 282 289 296 303 308 312 315 318 322 327 331 331 331 331 332 334 335 339 342 344 344 343 344
239 239 238 238 238 239 239 241 243 243 240 237 236 235 234 237 242 245 241 236 232 229 229 234 237 236 237 238 236 234 233 228 224 222 217 214 215 217 217 219 221 220 220 220 221 223 223 222 217 213 212 216 219 221 220 218 218 228 242 255 267 275 281 286 291 298 302 306 309 312 316 319 323 327 327 327 327 329 331 332 334 338 340 341 341 341
240 239 238 237 237 237 238 238 240 242 241 240 237 234 234 236 239 243 244 240 233 229 229 233 236 235 236 238 237 235 234 230 227 226 224 220 219 220 221 222 225 226 224 221 222 226 228 227 223 221 222 223 227 232 233 227 225 232 245 260 273 281 287 291 296 301 303 305 307 310 314 316 319 322 323 323 325 326 328 329 331 335 337 338 338 338
243 240 239 238 236 236 237 237 239 240 241 242 240 236 233 233 235 239 243 243 236 231 234 235 235 234 235 237 236 235 236 233 229 229 228 227 225 224 225 226 227 231 232 230 229 230 231 231 231 232 231 232 234 239 240 235 232 235 246 261 274 283 289 292 296 299 301 303 305 307 311 313 315 317 318 320 322 324 325 327 329 332 334 335 335 334
250 243 239 239 237 236 236 237 237 239 240 242 242 239 235 232 233 235 241 244 240 233 234 236 234 230 231 237 237 234 236 236 231 230 231 231 231 230 230 231 232 234 236 238 238 237 236 236 239 241 239 237 238 240 242 241 240 241 245 256 268 278 283 287 291 295 298 300 302 306 310 311 311 313 315 317 320 322 323 324 327 330 331 332 332 331
257 251 243 239 238 238 236 235 236 237 238 239 240 240 238 234 231 233 237 242 241 237 235 235 231 226 227 237 239 234 234 236 233 230 230 230 230 232 233 235 237 237 236 237 240 242 243 242 243 245 243 242 242 241 242 247 251 252 250 252 261 270 277 283 289 293 295 297 300 305 308 309 309 311 313 315 318 320 321 322 325 327 329 329 329 329
258 256 251 243 238 238 238 235 234 235 236 237 239 240 239 236 233 231 233 237 239 238 236 233 229 225 226 233 237 234 231 232 233 231 230 230 229 231 231 233 237 238 237 238 241 244 245 244 245 245 245 245 245 243 241 247 255 259 257 256 259 267 276 284 288 291 293 295 299 303 306 307 307 309 311 313 316 318 319 320 322 325 326 326 326 326
254 253 254 250 241 238 240 238 235 235 236 237 239 241 241 240 237 233 231 233 236 237 235 234 231 227 227 231 235 235 231 232 235 234 231 230 232 233 234 234 236 238 240 242 244 243 243 244 245 245 245 245 245 244 243 248 256 261 261 261 263 268 277 283 286 289 291 294 298 301 303 304 306 308 310 311 314 316 317 318 320 323 324 324 324 324
253 251 252 254 248 240 240 241 238 235 236 237 238 240 241 241 239 236 232 230 233 236 235 235 234 229 228 233 236 235 234 236 237 238 236 231 229 234 236 237 238 238 239 242 243 242 242 244 245 246 247 245 245 245 245 250 257 260 263 267 269 271 276 281 283 286 289 293 296 298 300 302 303 306 308 309 312 314 315 317 319 320 321 321 322 323
257 252 250 252 253 247 241 241 240 238 237 237 238 238 238 239 239 237 233 229 231 234 235 236 236 233 229 232 237 236 234 238 239 239 240 236 231 232 235 236 237 238 239 241 241 242 243 246 247 249 250 250 249 247 248 252 257 260 266 271 273 273 275 279 281 284 288 291 293 295 297 299 302 304 306 307 310 312 313 315 317 318 318 318 319 321
261 256 252 250 251 251 246 241 241 242 240 238 237 236 237 238 239 240 237 233 231 232 233 235 237 236 233 233 237 238 235 238 240 239 239 239 236 235 235 234 233 236 240 241 241 241 243 246 249 251 252 251 249 249 251 254 257 261 267 272 274 274 275 277 280 283 286 288 290 293 295 297 300 302 303 305 307 309 310 312 314 315 315 316 317 319
263 261 256 252 249 249 250 246 242 243 243 241 237 236 237 238 239 241 240 236 233 231 230 231 234 236 237 236 237 238 237 238 240 239 237 239 239 238 238 237 234 235 239 241 242 242 241 242 246 250 252 251 249 249 251 253 257 262 267 270 273 274 275 276 279 282 284 286 288 290 293 296 298 300 301 303 305 306 308 310 312 312 313 313 315 316
264 264 262 258 252 247 248 249 246 244 244 244 241 237 237 238 238 240 240 238 235 234 231 229 231 235 238 238 237 238 236 235 238 239 236 237 239 239 241 242 239 238 240 240 241 242 242 242 244 248 251 251 251 252 254 255 259 263 265 268 271 273 274 275 278 280 282 284 287 289 291 293 295 297 299 301 302 304 305 307 309 310 310 311 313 314
263 263 262 261 258 250 244 244 245 246 247 246 244 240 238 238 238 239 240 240 238 237 234 230 229 231 235 237 238 238 237 234 235 239 239 238 238 239 241 243 243 242 243 242 240 241 242 242 244 247 249 251 251 253 256 258 260 262 264 265 266 269 272 274 276 279 281 283 285 288 289 291 293 295 297 298 300 302 303 305 307 307 308 310 311 312
259 261 261 262 263 257 248 242 240 245 250 250 247 245 241 239 240 239 240 241 240 238 237 232 227 227 232 236 237 239 239 236 234 236 240 241 240 239 239 241 242 243 244 245 242 241 242 243 243 245 249 251 252 253 255 257 259 262 264 263 263 265 269 272 275 278 280 282 284 286 287 289 291 293 294 296 297 299 301 303 304 306 307 308 309 311
256 260 263 261 261 261 256 247 240 240 248 253 253 251 246 241 241 241 239 239 240 239 238 235 228 226 231 236 237 238 240 239 235 234 236 240 241 240 237 237 240 242 244 247 247 244 244 245 243 243 247 250 253 255 255 256 258 260 262 263 263 264 267 271 273 276 279 281 283 284 285 287 288 290 291 293 295 297 298 300 302 304 305 306 308 309
253 256 260 260 259 262 261 255 246 240 241 250 255 256 252 245 241 241 240 239 239 239 240 238 232 228 232 236 237 238 239 240 238 236 235 237 240 242 240 237 237 240 243 246 249 248 247 247 246 245 246 248 250 253 255 256 257 258 260 261 262 264 267 269 272 274 277 280 282 283 283 284 286 288 289 291 293 295 297 299 301 303 304 305 307 308
254 253 256 260 261 262 263 262 258 248 237 239 249 254 254 250 244 242 241 239 238 238 241 241 236 231 232 236 238 239 239 240 241 240 238 238 238 241 242 240 236 238 240 243 247 249 248 247 248 249 248 248 249 251 254 256 257 258 259 260 261 263 266 269 271 273 275 278 280 281 281 282 284 286 288 290 292 294 296 298 300 302 303 305 306 307
257 254 254 259 261 261 260 261 262 257 242 233 240 250 255 254 250 245 243 241 240 239 240 241 239 234 232 234 238 240 240 239 240 240 241 241 240 240 242 242 239 238 239 241 244 246 247 247 248 249 251 251 253 254 255 257 258 258 259 260 261 263 265 267 270 272 274 275 277 279 279 281 283 285 287 289 291 293 295 297 299 300 302 303 305 306
259 258 255 255 258 259 258 257 259 261 252 236 235 245 254 256 254 250 246 244 244 242 240 241 241 238 233 233 236 239 241 240 239 239 240 241 242 242 242 243 242 241 241 242 243 244 245 246 247 248 250 253 255 256 257 257 258 259 260 261 262 264 266 268 270 272 273 274 275 277 278 280 282 284 286 288 290 293 295 297 298 299 301 302 303 305
260 260 258 255 254 256 256 255 256 260 258 246 236 241 251 256 256 254 250 247 247 245 242 242 243 240 236 235 235 237 240 241 240 239 238 239 241 242 242 243 243 243 242 243 244 245 246 247 248 248 250 252 254 255 257 257 258 259 260 262 264 266 268 269 270 272 273 274 275 276 277 279 281 283 286 288 290 293 295 296 297 299 300 301 303 305
260 261 260 256 252 252 253 254 254 257 260 256 247 243 247 254 256 256 253 250 249 249 246 245 245 242 239 237 237 236 238 240 241 241 240 239 240 242 242 244 245 246 245 244 244 246 248 249 250 250 251 253 254 256 258 259 259 260 262 264 266 268 269 270 271 272 274 275 276 277 278 279 281 283 286 288 291 293 295 297 297 298 300 301 303 305
259 260 260 258 254 252 252 253 254 256 258 260 256 249 247 251 254 256 255 252 250 249 249 249 247 244 241 240 239 238 237 238 240 242 243 242 242 243 243 243 245 247 247 245 244 245 247 249 250 250 251 253 255 257 258 259 261 263 264 265 267 268 269 270 271 273 274 275 276 277 278 280 282 284 286 289 291 293 295 296 296 298 300 301 302 304
257 257 258 258 256 256 254 253 253 254 255 257 258 254 250 251 252 254 255 255 254 251 248 248 249 247 245 242 240 239 239 238 238 240 242 243 243 244 244 243 243 246 248 248 247 246 247 248 249 250 251 253 255 256 257 259 261 264 265 266 266 267 269 271 272 273 274 276 277 278 279 281 283 285 287 290 292 293 295 295 295 297 299 299 300 303
254 254 255 255 256 256 254 252 251 251 252 255 259 258 254 253 254 255 254 254 256 254 249 246 247 249 248 245 241 240 240 240 239 239 240 243 244 245 245 245 244 244 246 249 250 249 249 249 250 251 251 252 254 255 256 257 259 262 265 266 266 268 270 272 272 274 275 277 278 279 281 283 284 286 289 292 293 294 295 295 296 297 298 298 299 301
253 252 251 251 251 252 252 252 250 250 253 258 260 258 257 256 256 256 254 252 254 255 252 247 245 246 248 246 245 242 241 241 242 241 240 241 242 244 245 246 246 245 245 247 249 250 251 250 250 251 251 251 252 253 254 255 257 261 264 265 267 269 271 272 273 275 276 278 279 281 283 284 285 288 291 293 294 294 295 295 296 297 298 298 299 300
254 253 251 250 249 247 248 250 250 251 255 258 257 256 258 257 255 255 256 255 255 254 252 249 247 247 247 248 248 248 246 245 245 246 245 244 243 243 245 246 247 247 247 246 246 248 250 251 251 250 250 251 251 252 253 254 257 260 263 264 267 270 272 273 274 276 277 279 281 282 284 285 287 289 291 292 292 293 294 295 296 297 298 299 299 300
252 252 251 249 248 246 245 247 249 252 254 254 254 256 257 256 255 255 256 257 257 255 250 248 250 251 251 250 249 250 250 250 248 247 247 247 245 244 244 245 246 247 247 247 246 245 246 249 251 251 250 250 251 252 253 255 257 259 261 263 265 268 270 271 273 276 277 279 281 282 283 285 286 288 289 290 291 292 294 295 296 297 298 298 298 299
249 251 250 248 248 247 245 246 247 249 249 250 252 254 255 255 256 256 256 258 258 257 253 249 249 251 252 253 253 251 250 250 248 245 243 244 245 244 243 243 243 244 245 246 247 246 245 246 249 251 252 252 253 254 255 256 257 258 259 261 263 265 267 269 271 274 276 278 279 280 281 283 284 286 287 288 289 291 293 294 295 296 297 297 297 298
248 250 250 248 247 246 245 245 246 247 249 250 251 252 254 255 255 256 257 258 258 258 256 252 249 249 249 250 250 249 246 244 245 245 243 242 243 245 245 244 243 243 243 244 247 247 247 246 247 250 253 254 254 255 255 256 257 258 259 261 263 264 266 268 270 273 274 276 278 279 280 281 282 283 284 285 287 289 291 293 294 294 294 296 297 299
244 245 247 246 245 245 245 245 247 249 250 251 251 252 253 253 254 255 256 256 256 256 256 253 250 249 248 248 247 247 246 245 246 247 247 246 245 245 246 246 246 246 246 246 247 249 250 249 248 249 251 254 256 256 257 258 259 260 261 262 264 265 267 270 271 272 274 275 277 278 279 280 281 282 283 284 286 288 290 291 292 292 294 296 298 299
240 243 245 245 244 244 245 245 247 249 249 250 250 251 251 252 253 254 254 254 254 255 255 254 251 249 250 251 249 248 247 247 247 248 249 248 247 246 246 245 247 248 248 248 248 249 250 250 250 249 251 254 256 258 259 260 260 261 262 264 266 268 269 270 271 272 273 274 276 277 277 278 279 280 281 283 285 286 288 290 290 291 294 297 297 298
239 241 243 244 243 243 244 244 245 247 247 248 249 249 250 252 253 253 252 252 252 254 255 255 253 250 251 252 251 249 248 246 246 247 249 249 249 249 248 246 246 248 249 248 248 248 249 249 249 249 249 251 254 257 259 261 262 262 263 264 267 268 269 269 270 271 272 273 274 275 276 277 278 279 280 282 283 285 286 288 289 291 294 295 296 297
239 241 242 243 242 242 242 243 244 245 246 247 247 248 250 251 252 253 252 251 251 252 254 255 252 250 251 250 249 249 249 248 247 247 249 250 250 250 249 248 247 247 249 249 249 249 249 250 249 249 248 249 251 254 257 261 263 265 265 265 265 266 267 268 269 270 271 271 272 273 274 275 276 278 279 280 282 284 286 287 288 290 292 293 294 296
238 240 242 243 242 241 241 242 242 244 245 246 246 248 249 250 251 252 252 252 252 251 252 253 252 250 249 248 247 248 249 248 248 248 249 249 249 248 248 248 247 247 248 249 250 250 250 250 250 250 249 249 250 253 256 259 262 264 264 263 263 264 265 266 267 268 269 270 270 272 274 275 276 277 279 280 282 284 286 287 288 289 290 291 293 295
235 238 240 241 241 241 242 243 243 243 244 245 245 246 247 248 250 251 252 253 253 251 250 249 248 247 246 245 246 248 249 249 249 248 249 250 249 249 249 249 250 249 248 248 250 251 251 251 251 251 251 251 252 254 256 258 259 261 262 263 261 261 261 263 264 265 267 268 269 271 272 273 275 277 279 280 281 283 285 286 286 288 289 290 292 293
231 234 236 238 240 241 243 244 245 245 246 247 247 247 248 250 252 254 254 254 253 251 249 247 245 244 243 244 246 247 248 248 248 248 249 251 251 251 250 251 251 252 251 250 251 252 253 253 252 252 251 251 251 253 257 259 259 260 262 263 263 262 261 261 263 264 265 266 267 268 270 271 274 276 277 278 280 282 283 284 285 286 287 289 291 291
228 230 232 234 236 238 240 242 243 245 246 248 249 250 251 253 254 255 255 254 251 249 246 244 243 243 244 244 244 244 245 247 247 248 249 251 253 253 252 251 252 252 253 253 253 253 254 254 254 254 254 252 249 247 250 255 259 260 262 263 263 263 261 260 261 262 263 264 265 266 267 270 273 275 275 277 279 280 281 282 283 285 287 289 289 290
225 227 229 230 231 232 234 237 239 241 243 245 248 250 250 251 251 252 252 250 246 243 243 242 242 242 243 243 242 242 243 244 245 246 247 248 252 255 254 252 251 252 254 255 255 254 254 254 254 254 254 254 251 243 239 243 249 255 261 264 265 264 263 262 261 260 260 261 263 265 267 270 272 272 274 275 277 279 281 282 283 285 287 287 288 289
223 225 226 228 229 229 229 231 235 238 238 240 244 246 246 246 247 246 245 244 242 240 242 243 243 242 242 244 244 242 241 241 243 244 245 247 251 253 254 253 253 252 253 254 255 255 254 253 252 250 248 250 251 246 240 240 244 250 256 262 265 266 267 267 264 261 262 263 264 265 267 269 270 271 273 275 277 279 280 282 284 286 286 286 288 290
220 221 223 225 227 229 228 227 230 235 237 238 240 242 243 244 245 243 241 242 243 241 240 242 243 243 243 244 245 243 240 240 241 242 244 247 250 251 252 252 252 251 252 253 254 254 253 250 248 246 245 245 246 245 242 242 246 249 252 257 263 266 267 268 267 265 266 267 266 266 267 268 269 271 272 274 276 278 280 282 284 285 285 287 289 290
217 218 221 223 225 227 226 224 225 230 234 237 240 242 242 243 244 243 241 241 242 240 237 237 240 241 241 241 242 242 241 240 240 241 243 246 247 248 250 250 248 248 249 249 250 249 247 243 242 243 248 251 250 247 241 240 245 247 248 253 258 260 261 262 261 260 263 268 269 269 269 269 269 270 271 273 275 278 280 282 283 284 286 287 288 288
213 215 217 219 221 223 222 222 225 227 227 229 236 240 241 242 243 242 239 237 237 237 235 235 236 238 238 237 238 239 238 238 239 239 240 241 243 245 247 245 243 242 241 241 243 241 235 229 229 233 242 250 251 247 236 231 236 240 242 245 248 248 247 249 250 253 260 267 271 272 272 270 269 270 271 273 276 278 279 280 282 283 284 285 286 286
Height
10956 10959 10960 10960 10959 10961 10962 10962 10962 10965 10968 10969 10969 10970 10970 10971 10972 10972 10972 10972 10972 10972 10972 10973 10972 10972 10972 10972 10972 10973 10973 10974 10975 10976 10978 10979 10980 10981 10982 10982 10983 10984 10986 10987 10989 10990 10991 10992 10993 10994 10995 10997 10998 10999 11000 11001 11002 11003 11003 11004 11004 11005 11005 11006 11006 11006 11006 11006 11005 11004 11004 11003 11003 11002 11002 11001 11000 10999 10998 10997 10996 10994 10993 10992 10991 10990
10954 10956 10954 10952 10953 10956 10958 10959 10960 10962 10965 10966 10966 10967 10968 10969 10970 10971 10971 10972 10972 10972 10972 10972 10972 10972 10972 10972 10972 10973 10973 10974 10975 10977 10978 10979 10980 10981 10982 10983 10983 10984 10985 10987 10988 10989 10990 10992 10993 10994 10995 10996 10998 10999 11000 11001 11002 11002 11003 11004 11004 11005 11005 11006 11006 11006 11005 11005 11005 11004 11004 11003 11002 11002 11001 11001 10999 10998 10997 10996 10995 10994 10993 10992 10991 10990
10950 10950 10944 10944 10947 10950 10954 10957 10958 10959 10962 10963 10964 10965 10966 10966 10968 10969 10969 10970 10971 10971 10971 10972 10972 10972 10972 10972 10972 10972 10973 10974 10976 10977 10978 10979 10980 10982 10983 10983 10984 10985 10986 10987 10988 10989 10990 10991 10993 10994 10995 10996 10997 10999 11000 11001 11001 11002 11003 11003 11004 11005 11005 11006 11005 11005 11005 11005 11004 11004 11003 11003 11002 11002 11001 11000 10999 10998 10997 10996 10995 10994 10993 10992 10991 10990
10944 10941 10938 10940 10943 10946 10950 10953 10955 10957 10959 10961 10961 10962 10962 10963 10965 10966 10967 10968 10970 10970 10970 10971 10971 10972 10972 10973 10973 10973 10973 10975 10976 10977 10978 10979 10980 10982 10983 10984 10985 10986 10986 10987 10988 10989 10989 10990 10992 10994 10995 10996 10997 10998 10999 11000 11001 11002 11002 11003 11004 11004 11005 11005 11005 11005 11005 11005 11004 11004 11003 11002 11002 11002 11001 11000 10998 10997 10996 10995 10994 10993 10992 10991 10990 10989
10936 10934 10934 10938 10940 10942 10945 10949 10952 10955 10956 10958 10958 10958 10958 10959 10961 10963 10964 10966 10968 10969 10969 10970 10970 10971 10972 10972 10973 10974 10974 10975 10976 10977 10978 10979 10980 10981 10983 10984 10985 10986 10987 10987 10988 10988 10989 10990 10991 10993 10995 10996 10997 10998 10999 11000 11001 11001 11002 11003 11003 11004 11004 11004 11004 11004 11004 11004 11004 11003 11002 11002 11002 11001 11000 10999 10998 10997 10996 10995 10994 10993 10992 10991 10989 10988
10929 10927 10930 10933 10935 10937 10939 10943 10948 10950 10952 10954 10955 10955 10954 10955 10957 10959 10961 10963 10966 10968 10967 10968 10969 10970 10971 10972 10973 10973 10974 10975 10976 10977 10977 10978 10979 10980 10982 10983 10984 10986 10987 10987 10988 10988 10989 10989 10991 10992 10993 10995 10996 10997 10999 11000 11000 11001 11002 11002 11003 11003 11003 11004 11004 11004 11003 11003 11003 11002 11002 11001 11001 11000 10999 10998 10997 10996 10995 10994 10993 10992 10991 10990 10989 10987
10921 10920 10924 10928 10930 10932 10934 10938 10942 10944 10948 10951 10951 10950 10949 10951 10953 10955 10958 10960 10963 10965 10965 10967 10968 10969 10970 10971 10972 10972 10973 10975 10975 10976 10977 10977 10978 10979 10980 10982 10983 10985 10986 10987 10987 10987 10988 10988 10989 10991 10992 10993 10994 10996 10997 10999 11000 11001 11001 11002 11002 11002 11002 11003 11003 11003 11002 11002 11002 11001 11001 11000 11000 10999 10998 10997 10996 10995 10994 10994 10993 10992 10991 10990 10988 10987
10912 10913 10919 10922 10924 10927 10930 10933 10935 10937 10943 10946 10944 10944 10945 10946 10948 10951 10953 10956 10960 10961 10963 10966 10967 10968 10969 10969 10971 10972 10973 10974 10974 10975 10976 10976 10977 10978 10979 10980 10981 10983 10985 10985 10986 10986 10987 10987 10988 10989 10990 10991 10992 10993 10995 10997 10998 11000 11000 11001 11001 11001 11001 11002 11002 11001 11001 11001 11001 11000 11000 10999 10999 10998 10997 10996 10995 10994 10993 10993 10992 10991 10990 10989 10988 10986
10904 10908 10912 10914 10918 10923 10926 10926 10926 10929 10937 10939 10936 10939 10942 10941 10943 10946 10949 10952 10956 10957 10960 10964 10965 10966 10968 10968 10970 10971 10972 10973 10973 10974 10975 10975 10976 10977 10978 10979 10980 10981 10982 10984 10985 10986 10986 10987 10987 10987 10988 10990 10991 10992 10993 10994 10996 10998 10999 11000 11000 11001 11001 11001 11001 11000 11000 11000 10999 10999 10998 10998 10997 10997 10996 10995 10994 10993 10992 10991 10991 10990 10989 10988 10987 10985
10898 10900 10903 10908 10913 10916 10918 10919 10919 10923 10931 10931 10929 10934 10937 10937 10939 10941 10945 10949 10951 10954 10959 10962 10963 10965 10965 10966 10968 10969 10970 10971 10971 10972 10974 10975 10975 10976 10977 10977 10978 10979 10980 10982 10984 10985 10985 10986 10986 10986 10987 10988 10990 10991 10991 10992 10994 10995 10997 10998 10999 11000 11000 11000 10999 10999 10999 10998 10998 10997 10997 10996 10996 10995 10994 10993 10992 10991 10991 10990 10989 10988 10987 10986 10985 10984
10891 10893 10897 10902 10906 10907 10909 10912 10913 10917 10922 10922 10923 10929 10932 10933 10935 10936 10940 10944 10947 10953 10957 10959 10960 10962 10963 10964 10966 10967 10967 10968 10969 10971 10973 10973 10974 10974 10975 10976 10977 10977 10978 10980 10982 10983 10984 10984 10985 10985 10986 10988 10990 10991 10991 10992 10992 10993 10995 10997 10998 10998 10998 10998 10998 10998 10997 10997 10996 10996 10995 10995 10994 10993 10992 10991 10991 10990 10989 10988 10987 10986 10986 10984 10983 10982
10885 10888 10891 10893 10897 10900 10902 10906 10908 10910 10913 10914 10918 10923 10925 10928 10930 10932 10935 10939 10945 10952 10954 10955 10956 10959 10961 10962 10962 10963 10964 10965 10967 10968 10970 10971 10972 10973 10974 10974 10975 10976 10977 10978 10980 10981 10982 10983 10984 10985 10986 10987 10989 10990 10991 10991 10991 10991 10993 10994 10996 10996 10997 10997 10997 10996 10996 10995 10994 10994 10994 10993 10992 10991 10990 10989 10989 10988 10987 10986 10985 10984 10984 10982 10981 10980
10881 10884 10885 10886 10890 10892 10895 10898 10901 10904 10907 10908 10911 10914 10918 10923 10926 10929 10932 10935 10942 10948 10950 10950 10951 10955 10958 10958 10958 10960 10961 10962 10964 10965 10967 10968 10969 10970 10971 10972 10973 10975 10975 10976 10977 10979 10980 10981 10982 10983 10985 10985 10987 10988 10989 10990 10990 10990 10990 10992 10993 10994 10995 10995 10995 10994 10994 10993 10992 10992 10992 10991 10990 10989 10988 10987 10987 10986 10985 10984 10983 10982 10981 10980 10979 10978
10876 10878 10880 10881 10883 10884 10887 10891 10893 10896 10899 10899 10901 10905 10911 10917 10921 10926 10930 10931 10935 10941 10944 10944 10945 10950 10954 10954 10954 10956 10957 10959 10961 10963 10964 10966 10967 10969 10970 10971 10972 10973 10973 10973 10974 10976 10978 10979 10981 10982 10983 10983 10984 10986 10987 10988 10989 10989 10989 10989 10990 10991 10992 10993 10993 10992 10992 10991 10990 10990 10989 10989 10988 10986 10986 10985 10984 10984 10983 10982 10981 10980 10979 10978 10977 10975
10871 10873 10873 10873 10876 10877 10878 10882 10886 10888 10889 10892 10894 10896 10902 10910 10917 10922 10924 10925 10929 10932 10934 10937 10941 10945 10948 10949 10949 10949 10952 10954 10957 10959 10961 10962 10964 10966 10967 10969 10969 10970 10970 10971 10973 10974 10975 10977 10978 10979 10980 10981 10983 10983 10984 10985 10987 10988 10988 10987 10987 10988 10990 10990 10990 10990 10989 10988 10988 10987 10987 10986 10985 10984 10983 10983 10982 10981 10981 10980 10979 10978 10977 10975 10974 10972
10865 10868 10866 10865 10870 10872 10871 10873 10878 10881 10884 10887 10888 10891 10899 10907 10913 10916 10917 10920 10922 10922 10927 10933 10937 10940 10942 10943 10943 10944 10949 10952 10953 10955 10957 10960 10961 10962 10963 10964 10965 10967 10967 10968 10970 10972 10973 10974 10975 10976 10977 10979 10980 10981 10982 10982 10984 10985 10986 10985 10985 10986 10987 10987 10988 10987 10986 10986 10985 10985 10984 10984 10983 10982 10981 10980 10979 10979 10978 10977 10976 10975 10975 10973 10971 10970
10860 10862 10860 10860 10864 10867 10867 10866 10870 10876 10879 10879 10882 10890 10896 10897 10901 10904 10908 10913 10912 10914 10924 10930 10932 10935 10938 10939 10939 10942 10946 10949 10950 10952 10953 10956 10958 10959 10959 10960 10961 10963 10964 10966 10967 10969 10970 10971 10972 10973 10974 10976 10977 10978 10979 10979 10980 10982 10983 10983 10983 10983 10984 10985 10985 10984 10984 10983 10983 10982 10982 10981 10980 10979 10978 10978 10977 10976 10975 10974 10973 10973 10972 10971 10969 10968
10853 10855 10855 10856 10859 10861 10862 10862 10865 10870 10872 10873 10878 10884 10884 10882 10887 10894 10899 10904 10906 10913 10923 10925 10925 10929 10932 10935 10936 10938 10942 10944 10945 10947 10949 10952 10955 10956 10956 10956 10958 10959 10961 10962 10964 10966 10968 10968 10969 10970 10972 10974 10975 10976 10976 10977 10977 10978 10979 10980 10980 10980 10981 10981 10982 10982 10981 10980 10980 10979 10979 10978 10977 10976 10976 10975 10974 10973 10972 10972 10971 10970 10969 10968 10967 10965
10844 10848 10851 10852 10854 10854 10855 10859 10862 10863 10863 10866 10870 10871 10871 10874 10881 10885 10890 10899 10904 10911 10917 10918 10920 10924 10928 10932 10933 10934 10937 10939 10939 10942 10944 10948 10951 10951 10951 10952 10954 10956 10957 10958 10960 10962 10964 10965 10966 10967 10969 10970 10972 10972 10973 10974 10974 10975 10976 10977 10977 10977 10977 10978 10978 10978 10978 10977 10977 10976 10975 10975 10974 10974 10973 10972 10971 10970 10969 10969 10968 10967 10966 10965 10964 10963
10835 10840 10844 10845 10848 10849 10850 10856 10859 10857 10855 10855 10858 10863 10866 10871 10875 10876 10882 10893 10898 10902 10906 10910 10915 10920 10923 10927 10928 10928 10932 10933 10933 10936 10939 10942 10945 10946 10946 10947 10950 10953 10953 10953 10956 10958 10960 10962 10963 10964 10965 10966 10967 10968 10969 10970 10970 10971 10973 10974 10974 10974 10974 10974 10975 10975 10975 10974 10973 10973 10972 10972 10971 10970 10970 10969 10968 10967 10966 10966 10965 10964 10962 10961 10960 10960
10827 10833 10837 10837 10840 10844 10848 10852 10852 10850 10848 10847 10850 10857 10862 10865 10868 10868 10872 10883 10890 10893 10899 10906 10913 10918 10919 10919 10920 10921 10924 10927 10928 10929 10933 10936 10939 10941 10941 10942 10945 10947 10948 10949 10951 10952 10955 10958 10959 10960 10961 10962 10963 10964 10965 10966 10967 10968 10969 10970 10970 10971 10970 10970 10971 10971 10971 10970 10970 10969 10969 10968 10968 10967 10966 10965 10964 10964 10963 10962 10962 10961 10959 10958 10956 10956
10819 10824 10829 10829 10831 10839 10844 10845 10845 10843 10843 10843 10844 10850 10855 10858 10860 10861 10865 10875 10882 10886 10892 10899 10907 10913 10913 10911 10913 10914 10915 10919 10922 10924 10927 10930 10932 10935 10937 10938 10941 10942 10942 10944 10946 10947 10950 10953 10955 10955 10956 10957 10959 10960 10961 10962 10963 10964 10965 10966 10967 10966 10966 10966 10967 10967 10967 10966 10966 10965 10964 10964 10964 10963 10963 10962 10961 10960 10959 10959 10958 10958 10956 10954 10953 10952
10810 10812 10821 10825 10825 10830 10835 10837 10841 10840 10838 10839 10841 10844 10848 10851 10854 10857 10862 10868 10871 10876 10882 10888 10897 10906 10906 10904 10906 10906 10905 10910 10917 10919 10921 10923 10924 10928 10932 10934 10936 10937 10937 10937 10940 10943 10945 10947 10950 10951 10951 10952 10954 10955 10957 10958 10959 10960 10961 10962 10962 10962 10962 10962 10962 10962 10962 10962 10961 10961 10960 10960 10960 10959 10959 10958 10957 10957 10956 10955 10955 10954 10953 10951 10949 10948
10803 10802 10812 10821 10820 10820 10824 10829 10835 10838 10836 10836 10838 10839 10840 10845 10849 10850 10853 10856 10858 10865 10871 10877 10889 10900 10901 10899 10898 10897 10897 10902 10909 10913 10914 10915 10916 10919 10924 10928 10931 10932 10932 10931 10934 10939 10941 10941 10944 10946 10947 10948 10949 10950 10951 10953 10954 10955 10956 10956 10957 10957 10958 10958 10958 10958 10958 10957 10957 10956 10956 10955 10955 10955 10955 10954 10954 10953 10952 10952 10951 10950 10949 10948 10946 10945
10798 10798 10801 10809 10814 10815 10817 10822 10828 10833 10834 10834 10834 10833 10833 10837 10840 10840 10842 10846 10851 10859 10862 10867 10884 10895 10895 10891 10889 10888 10890 10895 10901 10906 10908 10909 10910 10911 10915 10921 10926 10927 10927 10927 10929 10934 10936 10937 10938 10941 10942 10943 10944 10945 10946 10948 10949 10950 10950 10951 10952 10953 10953 10953 10953 10953 10953 10952 10952 10952 10951 10951 10951 10950 10950 10950 10950 10949 10948 10948 10948 10947 10945 10943 10942 10941
10791 10795 10793 10797 10807 10812 10813 10815 10818 10822 10826 10829 10828 10827 10826 10828 10830 10831 10834 10837 10845 10854 10854 10858 10875 10886 10885 10883 10882 10881 10885 10890 10894 10898 10901 10903 10904 10904 10907 10913 10919 10921 10922 10923 10924 10927 10930 10932 10933 10935 10936 10937 10939 10940 10941 10943 10944 10945 10946 10947 10947 10948 10948 10948 10948 10948 10948 10948 10947 10947 10946 10946 10946 10945 10945 10946 10946 10945 10944 10944 10944 10944 10942 10940 10937 10935
10781 10788 10791 10793 10799 10806 10808 10808 10806 10808 10815 10823 10824 10822 10821 10821 10824 10826 10828 10834 10842 10846 10846 10851 10863 10871 10874 10877 10875 10872 10876 10883 10886 10889 10892 10895 10897 10899 10901 10905 10911 10914 10915 10918 10919 10921 10924 10926 10929 10930 10931 10932 10934 10936 10937 10938 10939 10939 10940 10941 10942 10943 10943 10943 10943 10943 10943 10943 10942 10941 10941 10941 10941 10940 10941 10941 10942 10941 10940 10939 10939 10939 10939 10937 10935 10932
10769 10777 10787 10791 10791 10795 10800 10801 10798 10798 10805 10816 10819 10818 10816 10816 10818 10821 10826 10832 10834 10834 10841 10848 10850 10856 10865 10869 10867 10865 10867 10873 10878 10880 10884 10885 10887 10892 10896 10898 10903 10906 10908 10912 10914 10916 10918 10921 10923 10925 10927 10929 10930 10930 10931 10932 10933 10934 10935 10935 10936 10937 10938 10938 10937 10937 10937 10938 10938 10937 10936 10936 10935 10935 10936 10937 10937 10937 10936 10935 10934 10934 10935 10934 10932 10930
10757 10766 10777 10784 10784 10785 10789 10793 10793 10791 10795 10805 10811 10813 10813 10811 10813 10818 10823 10827 10824 10825 10836 10840 10836 10844 10856 10858 10859 10860 10860 10864 10868 10870 10873 10875 10877 10883 10888 10890 10894 10897 10902 10907 10909 10910 10912 10914 10917 10920 10923 10924 10925 10924 10925 10926 10927 10928 10929 10930 10931 10932 10932 10933 10932 10931 10931 10932 10932 10932 10931 10931 10930 10930 10932 10933 10933 10932 10932 10931 10930 10929 10929 10929 10928 10927
10747 10755 10763 10771 10776 10778 10779 10783 10787 10785 10786 10793 10800 10806 10808 10809 10809 10812 10817 10820 10818 10820 10828 10829 10827 10836 10846 10847 10849 10852 10854 10856 10857 10859 10864 10868 10869 10874 10880 10884 10886 10890 10895 10901 10903 10904 10905 10906 10909 10913 10917 10918 10918 10918 10919 10919 10920 10922 10923 10925 10926 10926 10926 10927 10927 10926 10925 10926 10927 10927 10926 10926 10925 10926 10927 10928 10928 10928 10927 10926 10926 10925 10923 10922 10922 10921
10737 10745 10751 10758 10763 10768 10773 10774 10776 10779 10780 10782 10788 10798 10804 10806 10806 10806 10808 10811 10814 10817 10820 10820 10822 10829 10835 10837 10838 10840 10844 10849 10851 10851 10855 10860 10864 10867 10873 10879 10880 10881 10886 10891 10895 10897 10897 10899 10901 10905 10910 10912 10912 10913 10913 10913 10914 10915 10917 10919 10920 10919 10920 10921 10922 10921 10920 10920 10920 10921 10920 10920 10921 10921 10922 10923 10923 10923 10922 10922 10922 10921 10920 10917 10915 10914
10726 10735 10741 10745 10750 10760 10767 10765 10766 10771 10771 10771 10780 10793 10798 10798 10799 10800 10802 10805 10809 10811 10812 10813 10817 10821 10823 10824 10826 10829 10834 10840 10844 10844 10845 10852 10859 10861 10864 10871 10875 10875 10877 10881 10886 10889 10891 10892 10895 10898 10902 10904 10906 10907 10907 10907 10909 10910 10911 10912 10913 10913 10914 10915 10916 10916 10915 10914 10914 10915 10914 10914 10916 10917 10917 10917 10918 10918 10917 10917 10917 10917 10916 10914 10911 10909
10712 10724 10730 10733 10742 10752 10756 10756 10758 10757 10757 10767 10781 10787 10787 10789 10792 10795 10798 10800 10801 10800 10802 10807 10812 10812 10809 10810 10816 10822 10827 10829 10833 10838 10840 10847 10853 10853 10855 10861 10867 10869 10871 10873 10878 10881 10883 10886 10890 10892 10896 10898 10899 10900 10901 10903 10904 10904 10904 10906 10908 10909 10909 10909 10909 10910 10909 10909 10908 10909 10909 10909 10910 10912 10912 10912 10911 10911 10911 10911 10911 10911 10910 10909 10906 10904
10696 10708 10715 10721 10732 10741 10743 10746 10746 10743 10752 10770 10777 10774 10775 10781 10785 10787 10791 10794 10793 10790 10793 10799 10803 10801 10799 10803 10811 10817 10822 10824 10825 10829 10835 10840 10844 10846 10848 10853 10857 10861 10864 10868 10871 10872 10874 10879 10883 10885 10888 10891 10892 10893 10895 10898 10899 10899 10899 10901 10903 10904 10904 10903 10903 10904 10903 10903 10902 10903 10903 10903 10905 10906 10906 10906 10905 10904 10903 10904 10904 10904 10903 10902 10900 10897
10681 10690 10699 10707 10718 10727 10731 10730 10730 10738 10755 10765 10764 10763 10768 10772 10776 10779 10783 10785 10784 10782 10785 10790 10794 10795 10796 10803 10810 10813 10817 10821 10823 10825 10829 10834 10838 10841 10843 10846 10848 10850 10854 10859 10862 10863 10865 10870 10873 10876 10880 10883 10884 10886 10889 10892 10894 10895 10896 10897 10898 10899 10898 10897 10898 10898 10897 10896 10897 10897 10897 10898 10899 10900 10900 10899 10897 10896 10896 10896 10896 10895 10895 10894 10892 10890
10666 10671 10682 10694 10702 10711 10716 10716 10723 10740 10751 10750 10752 10758 10760 10761 10766 10771 10774 10775 10773 10773 10779 10785 10790 10793 10795 10800 10806 10808 10810 10814 10818 10821 10821 10822 10825 10829 10833 10836 10838 10839 10841 10845 10849 10854 10857 10859 10862 10866 10872 10874 10875 10878 10883 10887 10889 10891 10892 10892 10892 10893 10892 10892 10893 10892 10891 10890 10890 10891 10891 10892 10893 10894 10893 10891 10889 10888 10888 10887 10887 10886 10886 10885 10883 10881
10651 10654 10665 10680 10689 10697 10704 10708 10718 10731 10733 10737 10747 10751 10749 10752 10757 10762 10766 10766 10764 10767 10775 10781 10785 10788 10790 10794 10798 10801 10804 10805 10804 10806 10809 10808 10809 10812 10816 10822 10825 10827 10829 10830 10833 10840 10847 10851 10854 10857 10862 10866 10869 10872 10877 10880 10883 10885 10886 10886 10887 10887 10887 10887 10888 10887 10884 10884 10884 10884 10885 10886 10887 10887 10886 10884 10883 10882 10881 10879 10878 10877 10877 10875 10873 10872
10642 10641 10647 10664 10677 10686 10692 10698 10707 10717 10724 10733 10741 10740 10739 10742 10746 10754 10759 10756 10756 10763 10769 10771 10775 10780 10784 10788 10789 10789 10792 10792 10791 10793 10798 10800 10800 10801 10804 10810 10813 10815 10818 10820 10822 10827 10836 10845 10850 10852 10853 10857 10862 10866 10870 10873 10875 10878 10880 10881 10881 10881 10881 10882 10882 10881 10879 10877 10877 10877 10878 10879 10880 10880 10879 10878 10877 10877 10876 10873 10870 10869 10868 10866 10864 10863
10626 10621 10628 10647 10664 10673 10680 10688 10699 10711 10720 10726 10728 10728 10728 10731 10738 10746 10748 10746 10750 10758 10760 10762 10767 10772 10776 10780 10781 10781 10783 10785 10786 10788 10790 10792 10795 10797 10799 10804 10805 10806 10812 10817 10819 10821 10827 10835 10844 10849 10849 10850 10854 10859 10863 10866 10868 10871 10874 10875 10875 10875 10875 10876 10875 10874 10872 10870 10869 10869 10869 10870 10871 10872 10871 10870 10871 10870 10869 10866 10864 10861 10860 10858 10855 10854
10603 10607 10617 10635 10652 10664 10672 10681 10693 10703 10710 10714 10717 10716 10716 10722 10732 10736 10735 10739 10747 10751 10751 10755 10762 10767 10770 10772 10772 10774 10778 10780 10782 10782 10781 10783 10787 10789 10793 10799 10800 10799 10804 10810 10814 10816 10818 10823 10834 10845 10848 10848 10848 10850 10853 10856 10860 10865 10869 10869 10869 10869 10869 10868 10867 10866 10865 10863 10861 10860 10860 10861 10862 10862 10862 10863 10863 10862 10861 10859 10857 10854 10852 10850 10847 10845
10589 10599 10608 10624 10643 10655 10663 10673 10684 10691 10697 10704 10707 10704 10706 10716 10723 10723 10726 10735 10742 10744 10745 10750 10756 10761 10764 10763 10761 10765 10770 10774 10776 10775 10773 10775 10778 10780 10785 10792 10793 10792 10793 10798 10802 10804 10805 10811 10824 10836 10843 10843 10842 10842 10844 10845 10848 10857 10864 10864 10862 10862 10861 10858 10857 10857 10856 10854 10852 10850 10850 10851 10853 10853 10853 10854 10854 10854 10853 10852 10850 10848 10845 10843 10839 10837
10582 10591 10599 10616 10635 10645 10652 10663 10673 10679 10687 10695 10696 10694 10699 10709 10712 10713 10720 10729 10735 10740 10743 10745 10749 10753 10754 10752 10752 10755 10761 10767 10770 10769 10767 10767 10770 10772 10776 10781 10784 10784 10785 10787 10791 10793 10796 10803 10814 10824 10831 10835 10836 10837 10840 10839 10840 10846 10853 10855 10854 10852 10849 10847 10847 10847 10846 10845 10843 10840 10840 10842 10843 10843 10844 10845 10845 10845 10844 10844 10843 10840 10838 10836 10833 10830
10574 10585 10596 10611 10626 10635 10642 10652 10663 10672 10679 10684 10685 10686 10692 10700 10703 10707 10714 10722 10730 10738 10739 10738 10741 10742 10743 10744 10745 10748 10753 10759 10762 10762 10759 10758 10760 10763 10767 10770 10773 10775 10778 10779 10780 10783 10789 10796 10804 10811 10818 10826 10831 10833 10836 10837 10835 10834 10836 10840 10842 10840 10837 10837 10837 10837 10836 10836 10834 10831 10831 10833 10834 10835 10836 10837 10837 10837 10836 10835 10834 10832 10830 10828 10826 10824
10569 10581 10591 10604 10616 10624 10633 10645 10658 10666 10669 10671 10675 10679 10685 10691 10696 10701 10710 10719 10726 10731 10731 10730 10731 10732 10733 10737 10740 10743 10748 10751 10753 10753 10751 10750 10751 10755 10761 10764 10766 10768 10771 10771 10771 10775 10782 10788 10794 10800 10808 10817 10825 10829 10829 10828 10826 10822 10821 10824 10827 10828 10827 10828 10828 10827 10826 10826 10825 10823 10822 10823 10825 10827 10829 10829 10829 10829 10828 10827 10826 10823 10821 10821 10819 10817
10562 10572 10583 10596 10608 10618 10630 10642 10652 10658 10659 10662 10667 10672 10678 10687 10692 10699 10709 10717 10721 10722 10721 10721 10722 10722 10725 10730 10734 10738 10740 10742 10744 10744 10743 10743 10745 10749 10755 10758 10759 10760 10762 10764 10766 10770 10775 10780 10785 10791 10799 10806 10814 10819 10821 10819 10816 10813 10810 10810 10814 10817 10819 10819 10819 10817 10817 10817 10817 10814 10812 10814 10817 10819 10821 10821 10821 10821 10820 10819 10817 10815 10814 10814 10812 10809
10553 10564 10577 10590 10602 10614 10626 10635 10643 10648 10651 10655 10660 10667 10678 10687 10692 10698 10706 10710 10711 10710 10709 10709 10710 10712 10717 10723 10728 10731 10732 10734 10735 10736 10736 10738 10740 10743 10748 10751 10752 10753 10754 10756 10760 10764 10768 10773 10778 10784 10791 10795 10800 10807 10811 10812 10810 10806 10801 10799 10801 10805 10808 10808 10808 10808 10808 10807 10805 10803 10804 10807 10810 10811 10812 10812 10813 10812 10811 10810 10809 10808 10808 10807 10804 10801
10546 10558 10570 10582 10593 10606 10617 10626 10634 10640 10644 10648 10655 10665 10676 10682 10686 10691 10696 10697 10697 10696 10696 10698 10703 10707 10712 10716 10720 10723 10725 10726 10727 10728 10730 10732 10734 10737 10741 10744 10746 10746 10747 10750 10754 10756 10760 10766 10772 10778 10783 10786 10791 10798 10802 10803 10805 10806 10802 10795 10790 10790 10794 10797 10798 10797 10796 10794 10793 10796 10799 10801 10801 10803 10803 10804 10804 10804 10803 10802 10801 10800 10800 10798 10796 10795
10539 10552 10564 10574 10585 10598 10610 10621 10628 10632 10635 10642 10650 10659 10665 10669 10674 10679 10681 10681 10684 10686 10688 10693 10699 10703 10706 10709 10712 10716 10718 10719 10720 10722 10724 10726 10728 10731 10734 10737 10739 10740 10741 10744 10746 10749 10752 10758 10764 10770 10775 10778 10783 10790 10795 10798 10804 10809 10807 10798 10788 10782 10783 10786 10787 10787 10785 10785 10786 10791 10794 10794 10794 10796 10796 10796 10796 10796 10796 10795 10794 10793 10792 10790 10789 10788
10534 10547 10558 10568 10578 10590 10603 10617 10624 10625 10629 10636 10644 10650 10654 10658 10662 10667 10669 10672 10676 10680 10684 10688 10692 10696 10699 10702 10705 10708 10709 10711 10714 10717 10719 10721 10723 10725 10728 10731 10732 10734 10736 10738 10740 10742 10746 10750 10755 10761 10767 10771 10774 10779 10786 10794 10801 10806 10806 10801 10790 10780 10775 10778 10779 10777 10776 10778 10781 10784 10786 10787 10788 10789 10788 10788 10788 10789 10790 10789 10787 10784 10782 10782 10782 10782
10531 10543 10553 10563 10574 10584 10598 10612 10619 10620 10624 10632 10638 10641 10645 10649 10653 10658 10663 10666 10669 10674 10678 10681 10683 10687 10691 10695 10698 10700 10702 10704 10708 10711 10713 10716 10717 10719 10721 10724 10725 10728 10729 10731 10733 10735 10739 10743 10748 10756 10764 10770 10771 10774 10781 10788 10793 10797 10800 10800 10793 10783 10778 10778 10776 10771 10770 10772 10775 10777 10779 10781 10781 10780 10780 10780 10782 10783 10784 10782 10778 10775 10774 10774 10774 10773
10528 10539 10549 10560 10570 10581 10596 10609 10613 10615 10621 10629 10632 10632 10635 10641 10645 10650 10656 10660 10663 10667 10670 10673 10677 10680 10683 10687 10690 10693 10696 10698 10701 10704 10707 10709 10711 10713 10715 10717 10719 10721 10722 10724 10727 10730 10734 10739 10744 10753 10764 10770 10771 10773 10777 10781 10783 10787 10792 10794 10790 10783 10778 10775 10772 10768 10767 10769 10770 10772 10773 10772 10772 10772 10772 10774 10775 10776 10776 10773 10770 10768 10767 10766 10765 10765